APRIZESAT 8 (39425 NORAD) Tracking and Keplerian Element Data

This shows tracking and keplerian element data for the satellite.

Feedback or suggestion? Click here.




ElementValue
Catalog39425
NameAPRIZESAT 8
Epoch Orbit27281
Epoch Day344.93299914
Epoch Year2018
RAAN5.8426
Inclination97.5676
Eccentricity0.0050556
Argument of Perigee292.5263
Mean Anonmoly67.0603
Mean Motion14.81077306
Decay Rate4.3E-07
L11 39425U 13066K 18344.93299914 .00000043 00000-0 11963-4 0 9996
L22 39425 97.5676 5.8426 0050556 292.5263 67.0603 14.81077306272819

Live tracking and technical data element details for APRIZESAT 8 (NORAD 39425). APRIZESAT 8 can be tracked NOW for your location showing map with azimuth and elevation plus other details from your city location.

Track the satellite on the map from your city or location and see movement details for azimuth, elevation, latitude, longitude, range, height, and movement on the map or in text.







IsCatalogInMostPopularTable: catalog: 39425, numindb: 79
Update: records affected: 1



GetName: 39425 APRIZESAT 8

Hit Count: updated at: Thu, 13 Dec 2018 05:06:29 GMT